Flag for United Kingdom Weather past 2 weeks in Southampton, England, United Kingdom

Now
64 °F

Scattered clouds.


Feels Like: 64 °F
Forecast: 58 / 67 °F
Wind: 12 mph from Southwest

Location: Southampton / Weather Centre

Current Time: Aug 28, 2014 at 12:49:09 PM

Latest Report: Aug 28, 2014 at 12:20 PM


Visibility: N/A

Pressure: 29.86 "Hg

Humidity: 68%

Dew point: 54 °F

Location of SouthamptonLocation

Historic Weather in Southampton — Graph

°F

Southampton temperature yesterday

Maximum temperature yesterday: 63 °F (at 12:20 PM)
Minimum temperature yesterday: 46 °F (at 5:50 AM)
Average temperature yesterday: 58 °F

Past Weeks' High & Low Weather Summary

 TemperatureHumidityPressure
High68 °F (Aug 13, 1:50 PM)100% (Aug 16, 5:50 AM)30.18 "Hg (Aug 16, 5:50 AM)
Low37 °F (Aug 21, 5:50 AM)40% (Aug 23, 4:20 PM)29.56 "Hg (Aug 25, 5:50 PM)
Average59 °F69%29.91 "Hg
* Reported Aug 13 11:20 AM — Aug 28 11:50 AM, Southampton, Weather by CustomWeather, © 2014

Note: Actual official high and low records may vary slightly from our data, if they occured in-between our weather recording intervals... More about our weather records

Advertising

Southampton weather history for previous 24 hours

 ConditionsComfort  
Time TempWeatherWind HumidityBarometerVisibility
11:50 AM
Aug 28
66 °FScattered clouds.10 mph68%29.86 "HgN/A
11:20 AM63 °FScattered clouds.13 mph73%29.86 "HgN/A
10:50 AM64 °FScattered clouds.10 mph73%29.86 "HgN/A
10:20 AM63 °FScattered clouds.10 mph73%29.86 "HgN/A
9:50 AM63 °FScattered clouds.10 mph77%29.86 "HgN/A
9:20 AM63 °FScattered clouds.9 mph83%29.86 "HgN/A
8:50 AM61 °FPartly sunny.6 mph88%29.86 "HgN/A
8:20 AM61 °FPartly sunny.6 mph88%29.83 "HgN/A
7:50 AM59 °FPartly sunny.6 mph88%29.83 "HgN/A
7:20 AM61 °FDrizzle. Broken clouds.7 mph88%29.83 "Hg6 mi
6:50 AM61 °FPartly cloudy.6 mph88%29.83 "HgN/A
6:20 AM61 °FPartly cloudy.6 mph88%29.80 "HgN/A
5:50 AM61 °FPassing clouds.7 mph88%29.80 "HgN/A
9:50 PM
Aug 27
59 °FRain. Partly cloudy.2 mph94%29.86 "Hg2 mi
9:20 PM61 °FPartly cloudy.2 mph88%29.86 "Hg6 mi
8:50 PM61 °FLight rain. Broken clouds.3 mph88%29.86 "Hg6 mi
8:20 PM61 °FRain. Broken clouds.7 mph94%29.86 "Hg5 mi
7:50 PM61 °FSprinkles. Broken clouds.7 mph88%29.86 "Hg5 mi
6:50 PM63 °FScattered showers. Broken clouds.8 mph83%29.86 "HgN/A
6:20 PM63 °FScattered showers. Broken clouds.8 mph83%29.86 "HgN/A
5:20 PM63 °FScattered showers. Broken clouds.7 mph88%29.89 "HgN/A
3:20 PM61 °FScattered showers. Broken clouds.7 mph88%29.92 "Hg4 mi
2:50 PM61 °FScattered showers. Broken clouds.8 mph88%29.92 "Hg3 mi
2:20 PM61 °FDrizzle. Broken clouds.9 mph83%29.92 "Hg3 mi
1:50 PM61 °FBroken clouds.8 mph77%29.92 "HgN/A
1:20 PM63 °FBroken clouds.8 mph73%29.92 "HgN/A
12:50 PM63 °FBroken clouds.9 mph73%29.95 "HgN/A
12:20 PM63 °FBroken clouds.10 mph73%29.95 "HgN/A
Weather by CustomWeather, © 2014

See weather overviewHow to use our weather pages